Left ArrowRight Arrow

30.00354, -91.81873

Hourly Observations for April 11, 2019

Temp ( °F °C ) Dew Point ( °F °C ) Humidity (%) Winds ( mph kmh ) Pressure ( in mb ) Visibility ( mi km ) Precip ( " mm )
12:53 am 00:53 Clear 68 20 67 19.4 96 96 SSE 8 13 29.75 1008 10 16 0.00 0.00
1:53 am 01:53 Clear 67 19.4 67 19.4 100 100 SSE 8 13 29.73 1007 10 16 0.00 0.00
2:53 am 02:53 Clear 67 19.4 66 18.9 97 97 SSE 6 9 29.72 1007 10 16 0.00 0.00
3:49 am 03:49 Mostly Cloudy 66 19 64 18 94 94 SSE 7 11 29.72 1006 10 16 0.00 0.00
3:53 am 03:53 Mostly Cloudy 65 18.3 65 18.3 100 100 SSE 7 11 29.72 1006 10 16 0.00 0.00
4:09 am 04:09 Partly Cloudy 66 18.9 66 18.9 100 100 SE 8 13 29.71 1006 10 16 0.00 0.00
4:53 am 04:53 Clear 67 19.4 66 18.9 97 97 SSE 9 15 29.70 1006 10 16 0.00 0.00
5:53 am 05:53 Clear 66 18.9 66 18.9 100 100 SSE 8 13 29.70 1006 10 16 0.00 0.00
6:53 am 06:53 Mostly Sunny 67 19.4 66 18.9 97 97 SSE 12 19 29.70 1006 10 16 0.00 0.00
7:53 am 07:53 Mostly Sunny 69 20.6 67 19.4 93 93 SSE 15 24 29.72 1006 10 16 0.00 0.00
8:53 am 08:53 Mostly Sunny 72 22.2 66 18.9 82 82 S 21 33 29.75 1007 10 16 0.00 0.00
9:50 am 09:50 Mostly Cloudy 73 23 64 18 74 74 S 18 30 29.79 1009 10 16 0.00 0.00
9:53 am 09:53 Partly Cloudy 72 22.2 64 17.8 76 76 S 20 31 29.79 1009 10 16 0.00 0.00
10:31 am 10:31 Mostly Cloudy 76 24.4 65 18.3 69 69 S 18 30 29.80 1009 10 16 0.00 0.00
10:53 am 10:53 Partly Cloudy 76 24.4 65 18.3 69 69 S 21 33 29.78 1009 10 16 0.00 0.00
11:53 am 11:53 Partly Cloudy 77 25 65 18.3 66 66 S 20 31 29.78 1009 10 16 0.00 0.03
12:53 pm 12:53 Mostly Sunny 78 25.6 64 17.8 62 62 S 20 31 29.77 1008 10 16 0.00 0.00
1:53 pm 13:53 Partly Cloudy 78 25.6 65 18.3 64 64 SSE 23 37 29.75 1007 10 16 0.00 0.03
2:26 pm 14:26 Mostly Cloudy with Light Rain 78 25.6 66 18.9 67 67 SSE 24 39 29.75 1007 10 16 0.00 0.03
2:53 pm 14:53 Cloudy 77 25 66 18.9 69 69 SSE 20 31 29.75 1007 10 16 0.00 0.03
3:53 pm 15:53 Mostly Cloudy 77 25 65 18.3 66 66 S 20 31 29.74 1007 10 16 0.00 0.03
4:02 pm 16:02 Mostly Cloudy 77 25 66 18.9 69 69 S 16 26 29.74 1007 10 16 0.00 0.00
4:23 pm 16:23 Mostly Cloudy 77 25 67 19.4 71 71 S 15 24 29.76 1008 10 16 0.00 0.00
4:50 pm 16:50 Mostly Cloudy 75 24 66 19 74 74 S 14 22 29.76 1008 10 16 0.00 0.00
4:53 pm 16:53 Mostly Cloudy 76 24.4 67 19.4 74 74 S 14 22 29.75 1008 10 16 0.00 0.00
5:28 pm 17:28 Cloudy 76 24.4 68 20 77 77 SSE 12 19 29.76 1008 10 16 0.00 0.00
5:53 pm 17:53 Mostly Cloudy 77 25 66 18.9 69 69 SSW 14 22 29.75 1008 10 16 0.00 0.00
6:04 pm 18:04 Mostly Cloudy 76 24.4 65 18.3 69 69 S 16 26 29.75 1007 10 16 0.00 0.00
6:53 pm 18:53 Partly Cloudy 74 23.3 66 18.9 76 76 S 12 19 29.76 1008 10 16 0.00 0.00
7:53 pm 19:53 Mostly Clear 72 22.2 67 19.4 84 84 SSE 10 17 29.76 1008 10 16 0.00 0.00
8:53 pm 20:53 Clear 70 21.1 68 20 93 93 SSE 8 13 29.76 1008 10 16 0.00 0.00
9:53 pm 21:53 Clear 70 21.1 68 20 93 93 SSE 8 13 29.78 1008 10 16 0.00 0.00
10:53 pm 22:53 Clear 69 20.6 68 20 96 96 SSE 8 13 29.79 1009 10 16 0.00 0.00
11:53 pm 23:53 Clear 69 20.6 68 20 96 96 SE 5 7 29.79 1009 10 16 0.00 0.00

Powered by Vaisala Xweather